Location: Unspecified
(35.7250°N, 0.0000°E)
Time: 04:13:38
(UTC+00:00)

BEESAT 2 - Visible Passes

Search period start: 24 July 2019 00:00
Search period end: 03 August 2019 00:00
Orbit: 500 x 529 km, 64.9° (Epoch: 23 July)

Date Brightness Start Highest point End Pass type
(mag) Time Alt. Az. Time Alt. Az. Time Alt. Az.
24 Jul ? 01:27:44 16° NNW 01:27:44 16° NNW 01:29:01 10° N visible
25 Jul ? 01:12:00 15° NNW 01:12:00 15° NNW 01:13:02 10° N visible
26 Jul ? 00:56:14 14° NNW 00:56:14 14° NNW 00:57:03 10° N visible
27 Jul ? 00:40:25 13° NNW 00:40:25 13° NNW 00:41:04 10° N visible
28 Jul ? 00:24:33 12° N 00:24:33 12° N 00:25:05 10° N visible
29 Jul ? 00:08:38 12° N 00:08:38 12° N 00:09:05 10° N visible
29 Jul ? 23:52:38 12° N 23:52:38 12° N 23:53:06 10° N visible
30 Jul ? 23:36:34 12° NNW 23:36:34 12° NNW 23:37:07 10° N visible
31 Jul ? 23:20:22 13° NNW 23:20:22 13° NNW 23:21:07 10° N visible
01 Aug ? 23:04:02 14° NNW 23:04:02 14° NNW 23:05:08 10° N visible
02 Aug ? 22:47:26 16° NNW 22:47:26 16° NNW 22:49:08 10° N visible
